This demonstration page uses our WeatherBlox Daily Observations layout. Learn more.

Left ArrowRight Arrow

41.55636, -103.73856

Hourly Observations for January 11, 2021

Temp ( °F °C ) Dew Point ( °F °C ) Humidity (%) Winds ( mph kmh ) Pressure ( in mb ) Visibility ( mi km ) Precip ( " mm )
12:56 am 00:56 Clear 22 -5.7 10 -12.1 61 61 SW 5 7 30.31 1027 10 16.0934 0 0
1:56 am 01:56 Clear 22 -5.8 10 -12.1 61 61 WNW 8 13 30.31 1026 10 16.0934 0 0
2:56 am 02:56 Clear 18 -7.9 10 -12.5 70 70 W 7 11 30.32 1027 10 16.0934 0 0
3:56 am 03:56 Clear 18 -7.9 9 -12.9 68 68 W 9 15 30.32 1027 10 16.0934 0 0
4:56 am 04:56 Clear 21 -6 10 -12.4 61 61 W 7 11 30.32 1027 10 16.0934 0 0
5:56 am 05:56 Clear 16 -9 8 -13.4 71 71 WSW 9 15 30.37 1029 10 16.0934 0 0
6:56 am 06:56 Clear 19 -7.5 9 -12.7 67 67 W 10 17 30.36 1028 10 16.0934 0 0
7:56 am 07:56 Sunny 18 -7.8 10 -12.4 70 70 W 9 15 30.4 1029 10 16.0934 0 0
8:56 am 08:56 Sunny 28 -2.2 12 -11.3 50 50 WNW 15 24 30.36 1028 10 16.0934 0 0
9:56 am 09:56 Sunny 32 -0.2 16 -9.1 52 52 WNW 7 11 30.36 1028 10 16.0934 0 0
10:56 am 10:56 Sunny 37 3 14 -9.8 39 39 NNW 8 13 30.31 1027 10 16.0934 0 0
11:56 am 11:56 Sunny 44 6.5 7 -13.8 22 22 NW 17 28 30.26 1025 10 16.0934 0 0
12:56 pm 12:56 Sunny 45 7.3 4 -15.6 18 18 NW 17 28 30.24 1024 10 16.0934 0 0
1:56 pm 13:56 Sunny 46 7.7 4 -15.4 18 18 NW 17 28 30.22 1024 10 16.0934 0 0
2:58 pm 14:58 Sunny 45 7 5 -14.8 20 20 NW 16 26 30.17 1022 10 16.0934 0 0
3:58 pm 15:58 Sunny 43 5.9 5 -15.2 20 20 WNW 12 19 30.18 1022 10 16.0934 0 0
5:58 pm 17:58 Clear 29 -1.9 3 -16.1 33 33 WSW 8 13 30.34 1028 10 16.0934 0 0
6:58 pm 18:58 Clear 29 -1.8 4 -15.6 34 34 W 6 9 30.36 1028 10 16.0934 0 0
7:58 pm 19:58 Clear 28 -2 4 -15.3 36 36 W 7 11 30.37 1028 10 16.0934 0 0
8:58 pm 20:58 Clear 28 -2.4 5 -15 38 38 WSW 7 11 30.36 1028 10 16.0934 0 0
9:58 pm 21:58 Clear 26 -3.5 7 -14.1 44 44 W 12 19 30.38 1029 10 16.0934 0 0
10:58 pm 22:58 Clear 25 -3.7 7 -13.9 45 45 WSW 12 19 30.38 1029 10 16.0934 0 0
11:58 pm 23:58 Clear 26 -3.3 8 -13.2 47 47 WSW 9 15 30.35 1028 10 16.0934 0 0

Powered by AerisWeather